This is the latest recevied weather packets stored in our database for station/object W6SNO-1. If no packets are shown the sender has not sent any weather packets the latest 1 day(s).
| Time | Temp. | Humidity | Pressure | Rain* | Wind** | Luminosity | Snow |
|---|---|---|---|---|---|---|---|
| 1778038268 | 15° C | 76% | 1016.7 hPa | 0 mm | - | 0 W/m² | - |
| 1778037056 | 15° C | 77% | 1016.4 hPa | 0 mm | - | 0 W/m² | - |
| 1778036755 | 15° C | 77% | 1016.5 hPa | 0 mm | - | 0 W/m² | - |
| 1778036451 | 15° C | 77% | 1016.4 hPa | 0 mm | - | 1 W/m² | - |
| 1778036148 | 15° C | 77% | 1016.3 hPa | 0 mm | - | 1 W/m² | - |
| 1778035844 | 15° C | 76% | 1016.1 hPa | 0 mm | - | 2 W/m² | - |
| 1778035542 | 15° C | 76% | 1016.2 hPa | 0 mm | - | 3 W/m² | - |
| 1778035238 | 15.56° C | 74% | 1016.1 hPa | 0 mm | - | 5 W/m² | - |
| 1778034934 | 15.56° C | 74% | 1016.2 hPa | 0 mm | - | 7 W/m² | - |
| 1778034632 | 15.56° C | 75% | 1016 hPa | 0 mm | - | 9 W/m² | - |
| 1778034329 | 15.56° C | 75% | 1016 hPa | 0 mm | - | 11 W/m² | - |
| 1778034026 | 15.56° C | 74% | 1015.9 hPa | 0 mm | - | 14 W/m² | - |
| 1778033724 | 15.56° C | 74% | 1015.9 hPa | 0 mm | - | 17 W/m² | - |
| 1778033421 | 15.56° C | 74% | 1015.9 hPa | 0 mm | - | 21 W/m² | - |
| 1778032816 | 16.11° C | 74% | 1016 hPa | 0 mm | - | 25 W/m² | - |
| 1778032513 | 15.56° C | 74% | 1015.9 hPa | 0 mm | - | 28 W/m² | - |
| 1778032210 | 16.11° C | 74% | 1016.1 hPa | 0 mm | - | 31 W/m² | - |
| 1778031301 | 15.56° C | 73% | 1016 hPa | 0 mm | - | 38 W/m² | - |
| 1778030997 | 15.56° C | 73% | 1016 hPa | 0 mm | - | 41 W/m² | - |
| 1778030391 | 15.56° C | 73% | 1016 hPa | 0 mm | - | 42 W/m² | - |
| 1778030088 | 15.56° C | 74% | 1016 hPa | 0 mm | - | 44 W/m² | - |
| 1778029784 | 15.56° C | 73% | 1015.8 hPa | 0 mm | - | 44 W/m² | - |
| 1778029484 | 15.56° C | 74% | 1016 hPa | 0 mm | - | 46 W/m² | - |
| 1778029179 | 15.56° C | 74% | 1016.1 hPa | 0 mm | - | 49 W/m² | - |
| 1778028572 | 15.56° C | 73% | 1015.8 hPa | 0 mm | - | 51 W/m² | - |
* Rain latest hour (hover to see other rain measurements)
** Current wind speed in m/s (hover to see current wind gust speed)